{"data":{"norad_id":62210,"intl_designator":"2024-229U","name":"STARLINK-32670","alt_names":[],"object_type":"PAYLOAD","status":"ACTIVE","operator":null,"country":"US","launch_date":"2024-12-04","launch_site_code":"AFETR","launch_vehicle":null,"mission":null,"orbit_class":"UNKNOWN","rcs_meters":null,"size_class":null,"mass_kg":null,"dimensions":null,"purposes":["comms"],"wikipedia_slug":null,"has_3d_model":false,"image_url":null,"decayed_at":null,"tle_current":{"epoch":"2026-05-25T04:42:07.371360Z","epoch_age_seconds":52060,"freshness":"FRESH","line1":"1 62210U 24229U   26145.19591865  .00016400  00000+0  60406-3 0  9991","line2":"2 62210  42.9990 198.5039 0000357  53.5083 306.5802 15.27585065 82266","mean_motion":15.27585065,"eccentricity":3.57e-5,"inclination_deg":42.999,"raan_deg":198.5039,"arg_perigee_deg":53.5083,"mean_anomaly_deg":306.5802,"bstar":0.00060406,"rev_number":8226,"period_min":94.266436154245,"perigee_km":482.78898584725,"apogee_km":483.27887345162,"semimajor_km":6861.1709296494,"source":"CELESTRAK","updated_at":"2026-05-25T13:38:19.610075Z"}}}